• In United Kingdom
  • List of Countries
  • For 7 days
  • Water Temperature
  • Satellite Maps
  • Weather Map
  • Weather Widgets
  • user-avatar
    Login

    Hourly Weather Zaprude

    Today, 22 October, Monday

    Time Temperature Precipitation Wind Pressure Humidity
    00:00 +3°C° 0 mm 1 mps 750 mmHg 86%
    01:00 +3°C° 0 mm 1 mps 750 mmHg 88%
    02:00 +2°C° 0 mm 1 mps 750 mmHg 89%
    03:00 +2°C° 0 mm 1 mps 750 mmHg 90%
    04:00 +2°C° 0 mm 1 mps 750 mmHg 91%
    05:00 +2°C° 0 mm 1 mps 750 mmHg 92%
    06:00 +1°C° 0 mm 2 mps 750 mmHg 90%
    07:00 +2°C° 0 mm 2 mps 749 mmHg 88%
    08:00 +1°C° 0 mm 3 mps 749 mmHg 84%
    09:00 +3°C° 0 mm 3 mps 749 mmHg 78%
    10:00 +4°C° 0 mm 3 mps 748 mmHg 72%
    11:00 +6°C° 0 mm 4 mps 748 mmHg 66%
    12:00 +6°C° 0 mm 4 mps 747 mmHg 64%
    13:00 +7°C° 0 mm 4 mps 747 mmHg 63%
    14:00 +7°C° 0 mm 4 mps 746 mmHg 61%
    15:00 +6°C° 0 mm 4 mps 745 mmHg 66%
    16:00 +5°C° 0 mm 4 mps 745 mmHg 71%
    17:00 +4°C° 0 mm 3 mps 744 mmHg 76%
    18:00 +4°C° 0 mm 3 mps 744 mmHg 77%
    19:00 +4°C° 0 mm 4 mps 743 mmHg 78%
    20:00 +3°C° 0 mm 4 mps 743 mmHg 79%
    21:00 +3°C° 0 mm 4 mps 742 mmHg 80%
    22:00 +3°C° 0 mm 4 mps 741 mmHg 82%
    23:00 +3°C° 0 mm 4 mps 741 mmHg 84%

    Tomorrow, 23 October, Tuesday

    Time Temperature Precipitation Wind Pressure Humidity
    00:00 +3°C° 0.1 mm 4 mps 740 mmHg 86%
    01:00 +3°C° 0.1 mm 4 mps 739 mmHg 88%
    02:00 +3°C° 0.1 mm 4 mps 739 mmHg 90%
    03:00 +3°C° 0.7 mm 4 mps 738 mmHg 91%
    04:00 +3°C° 0.7 mm 3 mps 738 mmHg 92%
    05:00 +4°C° 0.7 mm 3 mps 737 mmHg 92%
    06:00 +4°C° 0.2 mm 3 mps 737 mmHg 92%
    07:00 +4°C° 0.2 mm 3 mps 737 mmHg 91%
    08:00 +5°C° 0.2 mm 2 mps 737 mmHg 91%
    09:00 +6°C° 0 mm 2 mps 737 mmHg 85%
    10:00 +6°C° 0 mm 2 mps 737 mmHg 79%
    11:00 +7°C° 0 mm 2 mps 736 mmHg 73%
    12:00 +7°C° 0 mm 2 mps 736 mmHg 70%
    13:00 +7°C° 0 mm 2 mps 735 mmHg 68%
    14:00 +7°C° 0 mm 2 mps 734 mmHg 65%
    15:00 +7°C° 0 mm 2 mps 734 mmHg 70%
    16:00 +6°C° 0 mm 2 mps 733 mmHg 74%
    17:00 +5°C° 0 mm 2 mps 732 mmHg 79%
    18:00 +4°C° 0 mm 3 mps 731 mmHg 79%
    19:00 +4°C° 0 mm 3 mps 730 mmHg 79%
    20:00 +4°C° 0 mm 3 mps 730 mmHg 78%
    21:00 +4°C° 0.1 mm 4 mps 729 mmHg 79%
    22:00 +4°C° 0.1 mm 4 mps 727 mmHg 80%
    23:00 +3°C° 0.1 mm 4 mps 726 mmHg 81%

    Day after tomorrow, 24 October, Wednesday

    Time Temperature Precipitation Wind Pressure Humidity
    00:00 +2°C° 0.2 mm 5 mps 725 mmHg 82%
    01:00 +2°C° 0.2 mm 5 mps 724 mmHg 83%
    02:00 +2°C° 0.2 mm 6 mps 723 mmHg 83%
    03:00 +2°C° 0.6 mm 5 mps 722 mmHg 84%
    04:00 +2°C° 0.6 mm 5 mps 721 mmHg 85%
    05:00 +2°C° 0.6 mm 5 mps 720 mmHg 85%
    06:00 +2°C° 0.7 mm 5 mps 719 mmHg 86%
    07:00 +2°C° 0.7 mm 5 mps 719 mmHg 86%
    08:00 +3°C° 0.7 mm 4 mps 718 mmHg 87%
    09:00 +4°C° 0.5 mm 4 mps 718 mmHg 87%
    10:00 +4°C° 0.5 mm 3 mps 718 mmHg 87%
    11:00 +4°C° 0.5 mm 3 mps 718 mmHg 87%
    12:00 +5°C° 0.3 mm 3 mps 718 mmHg 86%
    13:00 +6°C° 0.3 mm 2 mps 718 mmHg 86%
    14:00 +7°C° 0.3 mm 2 mps 718 mmHg 85%
    15:00 +6°C° 0.1 mm 2 mps 719 mmHg 87%
    16:00 +6°C° 0.1 mm 2 mps 719 mmHg 90%
    17:00 +6°C° 0.1 mm 1 mps 719 mmHg 92%
    18:00 +6°C° 0 mm 1 mps 719 mmHg 93%
    19:00 +6°C° 0 mm 1 mps 719 mmHg 94%
    20:00 +5°C° 0 mm 1 mps 720 mmHg 95%
    21:00 +4°C° 0 mm 2 mps 720 mmHg 95%
    22:00 +4°C° 0 mm 2 mps 720 mmHg 95%
    23:00 +4°C° 0 mm 2 mps 720 mmHg 95%

    25 October, Thursday

    Time Temperature Precipitation Wind Pressure Humidity
    00:00 +3°C° 0.1 mm 3 mps 720 mmHg 94%
    01:00 +3°C° 0.1 mm 3 mps 720 mmHg 94%
    02:00 +3°C° 0.1 mm 4 mps 720 mmHg 93%
    03:00 +3°C° 0.1 mm 4 mps 720 mmHg 91%
    04:00 +2°C° 0.1 mm 5 mps 720 mmHg 89%
    05:00 +2°C° 0.1 mm 5 mps 719 mmHg 87%
    06:00 +2°C° 0.2 mm 6 mps 719 mmHg 86%
    07:00 +2°C° 0.2 mm 6 mps 719 mmHg 84%
    08:00 +2°C° 0.2 mm 7 mps 719 mmHg 83%
    09:00 +2°C° 0.2 mm 7 mps 719 mmHg 82%
    10:00 +2°C° 0.2 mm 7 mps 719 mmHg 80%
    11:00 +2°C° 0.2 mm 7 mps 719 mmHg 79%
    12:00 +2°C° 0.3 mm 7 mps 719 mmHg 79%
    13:00 0°C° 0.3 mm 7 mps 719 mmHg 79%
    14:00 0°C° 0.3 mm 7 mps 719 mmHg 79%
    15:00 0°C° 0.2 mm 7 mps 720 mmHg 79%
    16:00 0°C° 0.2 mm 7 mps 720 mmHg 79%
    17:00 0°C° 0.2 mm 7 mps 720 mmHg 80%
    18:00 0°C° 0.3 mm 7 mps 721 mmHg 80%
    19:00 +1°C° 0.3 mm 6 mps 721 mmHg 80%
    20:00 +1°C° 0.3 mm 6 mps 722 mmHg 79%
    21:00 -1°C° 0.2 mm 6 mps 722 mmHg 80%
    22:00 -1°C° 0.2 mm 6 mps 723 mmHg 80%
    23:00 -1°C° 0.2 mm 6 mps 724 mmHg 80%

    26 October, Friday

    Time Temperature Precipitation Wind Pressure Humidity
    00:00 -1°C° 0 mm 6 mps 724 mmHg 81%
    01:00 -2°C° 0 mm 6 mps 725 mmHg 82%
    02:00 -1°C° 0 mm 5 mps 726 mmHg 83%
    03:00 -1°C° 0 mm 5 mps 726 mmHg 84%
    04:00 -2°C° 0 mm 5 mps 727 mmHg 86%
    05:00 -2°C° 0 mm 5 mps 727 mmHg 87%
    06:00 -2°C° 0 mm 5 mps 728 mmHg 87%
    07:00 -2°C° 0 mm 5 mps 729 mmHg 87%
    08:00 -1°C° 0 mm 5 mps 730 mmHg 87%
    09:00 -1°C° 0 mm 5 mps 730 mmHg 85%
    10:00 0°C° 0 mm 5 mps 731 mmHg 83%
    11:00 +1°C° 0 mm 5 mps 731 mmHg 81%
    12:00 +1°C° 0 mm 5 mps 732 mmHg 80%
    13:00 +1°C° 0 mm 5 mps 732 mmHg 79%
    14:00 +1°C° 0 mm 5 mps 733 mmHg 78%
    15:00 +1°C° 0 mm 4 mps 733 mmHg 78%
    16:00 +2°C° 0 mm 3 mps 734 mmHg 79%
    17:00 +2°C° 0 mm 3 mps 734 mmHg 79%
    18:00 +1°C° 0 mm 3 mps 735 mmHg 82%
    19:00 +1°C° 0 mm 3 mps 735 mmHg 84%
    20:00 +1°C° 0 mm 3 mps 736 mmHg 87%
    21:00 0°C° 0 mm 3 mps 736 mmHg 89%
    22:00 0°C° 0 mm 3 mps 737 mmHg 90%
    23:00 -1°C° 0 mm 3 mps 737 mmHg 92%

    27 October, Saturday

    Time Temperature Precipitation Wind Pressure Humidity
    00:00 -1°C° 0 mm 3 mps 737 mmHg 92%
    01:00 -1°C° 0 mm 3 mps 738 mmHg 93%
    02:00 -1°C° 0 mm 3 mps 738 mmHg 93%
    03:00 -1°C° 0 mm 2 mps 738 mmHg 94%
    04:00 -1°C° 0 mm 2 mps 738 mmHg 94%
    05:00 -1°C° 0 mm 2 mps 738 mmHg 94%
    06:00 -1°C° 0 mm 3 mps 738 mmHg 93%
    07:00 -1°C° 0 mm 3 mps 739 mmHg 92%
    08:00 -1°C° 0 mm 4 mps 739 mmHg 90%
    09:00 0°C° 0 mm 4 mps 738 mmHg 86%
    10:00 +3°C° 0 mm 4 mps 738 mmHg 83%
    11:00 +3°C° 0 mm 5 mps 738 mmHg 79%
    12:00 +3°C° 0.1 mm 5 mps 737 mmHg 79%
    13:00 +5°C° 0.1 mm 5 mps 737 mmHg 80%
    14:00 +5°C° 0.1 mm 5 mps 737 mmHg 80%
    15:00 +5°C° 0.2 mm 5 mps 737 mmHg 82%
    16:00 +5°C° 0.2 mm 5 mps 736 mmHg 84%
    17:00 +5°C° 0.2 mm 5 mps 736 mmHg 86%
    18:00 +5°C° 0 mm 5 mps 736 mmHg 86%
    19:00 +5°C° 0 mm 4 mps 736 mmHg 85%
    20:00 +5°C° 0 mm 4 mps 736 mmHg 85%
    21:00 +4°C° 0 mm 4 mps 736 mmHg 87%
    22:00 +4°C° 0 mm 3 mps 736 mmHg 88%
    23:00 +3°C° 0 mm 3 mps 737 mmHg 90%

    28 October, Sunday

    Time Temperature Precipitation Wind Pressure Humidity
    00:00 +3°C° 0 mm 3 mps 737 mmHg 91%
    01:00 +4°C° 0 mm 2 mps 737 mmHg 92%
    02:00 +4°C° 0 mm 2 mps 737 mmHg 93%
    03:00 +4°C° 0 mm 2 mps 737 mmHg 94%
    04:00 +4°C° 0 mm 2 mps 737 mmHg 95%
    05:00 +4°C° 0 mm 2 mps 737 mmHg 96%
    06:00 +4°C° 0.3 mm 2 mps 736 mmHg 96%
    07:00 +5°C° 0.3 mm 2 mps 736 mmHg 96%
    08:00 +5°C° 0.3 mm 2 mps 736 mmHg 96%
    09:00 +5°C° 0.5 mm 3 mps 736 mmHg 93%
    10:00 +8°C° 0.5 mm 3 mps 736 mmHg 90%
    11:00 +8°C° 0.5 mm 4 mps 736 mmHg 86%
    12:00 +8°C° 0.6 mm 4 mps 735 mmHg 86%
    13:00 +8°C° 0.6 mm 4 mps 735 mmHg 87%
    14:00 +10°C° 0.6 mm 4 mps 735 mmHg 87%
    15:00 +10°C° 0.3 mm 4 mps 734 mmHg 87%
    16:00 +10°C° 0.3 mm 4 mps 734 mmHg 87%
    17:00 +10°C° 0.3 mm 4 mps 734 mmHg 87%
    18:00 +11°C° 0.1 mm 4 mps 734 mmHg 85%
    19:00 +10°C° 0.1 mm 5 mps 734 mmHg 83%
    20:00 +12°C° 0.1 mm 5 mps 734 mmHg 82%
    21:00 +12°C° 0 mm 5 mps 734 mmHg 82%
    22:00 +12°C° 0 mm 5 mps 734 mmHg 82%
    23:00 +12°C° 0 mm 5 mps 734 mmHg 82%
    Show more